Weather in Uhovetsk

Ukraine / Volyn Oblast     51°14′07″N   24°56′29″E
temp.,
°C
wind,
m/s
gust,
m/s
humid.,
%
clouds,
%
prec.,
mm/h
press.,
hPa
HPBL,
m
10 april, sat
sat1000:00+5ssw61457100 0.0 1022511
03:00+3ssw6136451 0.0 1021389
06:00+3s51366100 0.0 1021314
09:00+6s6125987 0.0 1021473
12:00+11ssw7949100 0.0 1020890
15:00+14ssw79427 0.0 10191613
18:00+14ssw58466 0.0 10191610
21:00+9ssw46685 0.0 102089
11 april, sun
sun1100:00+7ssw410735 0.0 1021174
03:00+6s49795 0.0 1022161
06:00+5s498293 0.0 1023171
09:00+9s5964100 0.0 1024273
12:00+14sse6845100 0.0 1024880
15:00+16sse6839100 0.0 10231325
18:00+15sse684225 0.0 10221279
21:00+10se5125820 0.0 1023265
12 april, mon
mon1200:00+8sse61456100 0.0 1024373
03:00+6se5125996 0.0 1023283
06:00+6se51358100 0.0 1022324
09:00+8sse51057100 0.0 1022376
12:00+13sse5652100 0.0 1021660
15:00+14sse4655100 0.0 1019773
18:00+12se366467 0.0 1018162
21:00+12se366491 0.1 1018112
13 april, tue
tue1300:00+10s348195 0.1 101869
03:00+10sw238677 0.1 101845
06:00+8sw118976 0.0 101810
09:00+10ne0082100 0.0 101859
12:00+15ese335271 0.0 1017857
15:00+17sse3445100 0.0 10161221
18:00+12nnw6977100 0.0 1016308
21:00+8nnw6985100 0.0 1017386
14 april, wed
wed1400:00+7nnw61089100 0.1 1016353
03:00+6n6990100 0.1 1015343
06:00+6n5890100 0.1 1014273
09:00+8ne5683100 0.1 1013326
12:00+12ene4568100 0.0 1013624
15:00+15e4561100 0.6 10111157
18:00+12ese3576100 1.2 1011198
21:00+11se3680100 1.3 1012150